Wind_Speed
3 4 5 6 5 6 1 1 3 4 6 8 7 6 6 6 7 6 7 6 6 6 6 6 6 5 5 5 5 5 5 5 5 5 4 4 4 3 2 2 1 1 1 1 2 2 1 3 3
4 5 5 5 5 2 1 5 7 6 5 7 7 7 8 8 7 6 7 6 6 6 6 6 6 6 6 5 5 5 6 6 6 5 5 4 4 4 3 3 3 2 1 2 1 1 2 2 1
5 5 5 4 1 2 4 7 7 7 6 7 7 7 8 7 7 7 7 8 7 7 7 6 6 6 6 6 6 6 6 6 6 5 5 5 5 5 4 4 4 4 3 2 2 2 2 2 1
5 5 5 3 2 4 6 7 7 5 6 8 8 8 9 9 9 9 8 9 8 8 8 8 7 7 7 7 6 7 7 7 6 6 6 6 5 5 5 4 4 4 3 3 2 2 2 2 2
6 4 3 2 5 5 7 6 6 5 7 8 8 9 9 8 9 9 9 10 9 8 7 7 7 8 8 8 7 8 7 7 7 6 6 6 6 6 5 5 4 3 3 3 3 3 3 3 2
7 5 3 4 6 7 8 8 7 7 7 8 8 9 9 8 9 9 9 10 9 8 8 8 8 9 9 9 8 8 8 7 7 7 7 7 7 6 6 5 5 4 4 3 3 2 3 3 3
7 6 5 5 7 8 10 10 9 9 8 8 9 10 10 8 9 10 10 10 9 9 9 8 9 10 10 10 9 9 9 9 8 8 8 7 7 7 6 6 6 5 5 5 4 3 3 4 3
7 7 6 5 7 10 12 12 11 9 8 9 10 11 12 9 9 10 11 10 10 10 10 10 10 10 10 10 10 10 10 10 9 9 9 8 8 7 7 7 7 7 7 6 5 5 5 4 4
7 7 5 6 8 11 14 13 12 10 11 11 12 11 11 11 11 11 11 10 11 11 11 11 11 11 11 11 11 11 11 11 10 10 9 9 8 8 8 8 7 7 8 7 7 6 6 6 5
9 8 8 11 12 13 14 12 12 11 11 13 14 13 12 12 12 11 11 11 12 12 12 13 12 12 13 12 12 12 12 12 11 11 10 10 9 8 8 8 8 8 8 8 8 7 7 7 7
10 9 11 14 15 14 14 13 13 13 13 15 16 14 13 13 12 11 12 13 13 14 14 14 14 14 14 14 13 12 13 13 12 11 11 10 10 10 9 8 9 8 8 8 8 8 8 8 7
13 12 14 14 15 15 15 14 14 14 15 16 16 14 13 13 13 12 13 13 13 14 15 15 14 14 14 14 14 13 13 13 12 12 12 11 11 11 11 10 9 10 10 10 10 8 8 8 8
14 14 15 15 16 15 15 15 14 15 16 17 17 16 16 15 13 13 14 14 13 14 15 15 15 15 14 14 14 13 13 13 13 13 13 12 12 12 11 11 11 10 10 10 10 9 9 9 9
15 15 15 15 15 16 16 15 15 16 17 18 17 17 17 15 14 14 15 15 15 15 16 16 16 16 16 16 16 15 15 14 14 14 14 14 13 12 12 11 11 11 11 11 10 10 9 9 9
14 15 16 14 15 16 16 15 16 17 18 18 17 18 17 17 17 16 17 16 16 16 16 17 17 16 16 17 17 16 16 16 15 15 15 15 14 13 12 12 12 12 13 12 12 11 10 10 10
15 16 16 15 17 17 16 16 17 18 19 19 18 18 18 19 18 18 18 17 17 17 17 18 18 17 17 17 17 17 17 16 16 16 16 15 15 15 14 13 13 13 13 13 13 12 12 12 12
16 16 15 15 17 18 17 18 18 18 19 19 20 20 20 20 20 19 18 18 18 18 19 19 19 18 18 17 17 17 18 17 17 17 16 16 16 15 14 14 14 14 14 14 14 14 13 13 13
14 15 14 15 17 17 17 19 20 20 21 22 21 22 22 22 22 21 20 20 19 19 19 20 19 19 19 19 18 18 18 17 18 18 17 16 17 16 15 15 15 15 15 15 15 15 14 15 14
16 17 17 17 17 19 19 21 22 23 23 24 23 22 22 23 23 22 21 21 20 20 21 21 20 19 19 20 19 19 19 18 19 18 18 17 17 17 16 16 16 16 15 15 16 16 16 15 15
18 19 19 18 19 20 21 22 24 25 25 26 24 23 22 24 23 22 22 22 22 21 21 21 21 20 20 20 20 20 20 20 19 19 18 17 17 17 16 16 16 16 16 16 17 16 16 16 17
20 20 19 20 22 23 23 24 24 24 25 26 24 23 22 23 23 23 23 23 23 22 23 23 22 22 22 22 21 21 20 20 20 19 18 17 17 18 17 17 17 17 17 17 17 17 17 18 18
21 20 21 22 22 23 22 24 25 24 26 25 24 24 23 22 23 23 23 23 24 24 23 23 24 23 23 22 22 21 21 21 20 19 18 18 18 18 19 19 19 18 18 17 17 17 18 18 18
21 21 22 21 21 22 21 24 26 24 24 24 23 22 22 22 22 22 22 23 24 24 24 24 23 23 22 22 22 22 21 20 20 20 19 19 19 19 19 19 19 19 18 17 17 17 17 17 18
22 21 21 20 20 23 21 24 25 25 25 24 23 21 21 22 22 22 21 22 23 23 24 23 23 22 22 22 22 22 21 20 20 19 19 19 19 19 19 20 20 19 18 17 17 17 17 17 18
21 20 20 19 20 22 20 22 25 25 25 25 24 23 22 22 22 21 21 22 22 22 22 22 22 22 22 22 22 22 21 20 20 19 18 18 19 19 20 20 20 20 19 19 18 17 17 17 17
20 20 20 20 20 19 20 23 24 24 25 26 25 23 23 23 23 22 22 22 22 21 21 21 22 22 22 23 22 22 22 21 20 20 19 19 19 19 19 20 20 20 20 19 19 18 18 17 17
21 21 21 22 20 21 22 24 26 26 26 24 24 23 23 23 22 21 22 22 22 22 22 22 22 23 23 23 22 22 22 21 20 20 19 19 19 19 20 19 19 20 20 20 20 20 19 17 18
20 20 20 22 23 23 22 23 27 27 25 23 22 21 22 23 23 22 23 23 23 23 22 22 22 23 23 23 23 23 22 21 20 20 20 20 20 20 19 19 19 20 21 21 21 20 20 19 18
20 21 23 24 23 23 23 24 24 24 25 23 21 21 21 22 22 23 23 23 23 23 23 23 23 23 23 23 23 23 23 21 21 21 20 20 20 20 19 18 18 19 20 21 21 21 20 20 20
22 21 22 23 23 23 23 25 25 24 24 23 22 22 23 23 23 23 23 23 23 23 23 22 22 23 23 23 22 22 22 21 21 21 21 20 20 20 19 19 19 19 20 20 20 20 21 21 21
Wind_Direction
155 134 122 119 109 92 101 235 238 255 273 282 288 290 280 279 279 296 307 312 320 321 323 326 331 333 333 330 328 326 322 319 316 310 305 307 311 313 314 289 274 262 179 169 171 154 162 156 155
162 139 133 121 96 111 277 266 258 261 277 283 291 288 281 287 292 299 307 314 315 317 319 320 323 328 327 323 324 325 318 317 316 311 304 300 299 298 296 289 281 275 251 232 212 191 191 171 152
165 146 133 111 73 296 283 271 273 282 283 287 287 284 284 296 306 307 305 309 310 311 313 314 315 320 322 317 317 320 317 312 312 310 304 299 296 297 295 289 282 280 272 245 229 225 211 217 212
172 153 129 117 248 259 262 275 296 300 296 296 298 294 292 301 309 312 309 310 311 308 308 308 312 315 316 312 308 309 310 311 306 305 302 299 296 297 297 287 280 275 267 254 240 236 233 234 241
186 162 134 197 247 255 263 276 289 308 306 298 299 300 296 304 307 311 310 310 312 309 307 310 314 316 312 307 307 305 306 309 307 303 301 297 294 291 290 282 275 268 262 258 249 249 245 238 237
189 160 173 245 258 267 274 278 291 288 286 297 299 295 294 301 304 308 310 310 311 310 312 317 318 315 313 311 309 308 306 305 303 300 298 297 292 286 282 280 274 269 263 247 241 244 248 246 239
195 174 185 233 264 266 262 265 268 272 271 280 286 289 291 297 305 307 310 310 311 310 312 314 315 314 312 311 309 308 307 303 300 296 292 291 288 281 278 274 272 269 263 247 241 246 245 242 239
204 196 191 226 265 269 265 268 266 268 274 281 287 288 292 298 303 307 310 311 312 313 312 317 318 317 313 309 304 305 306 305 299 294 289 288 288 280 274 272 270 268 263 252 244 244 248 256 261
213 204 211 227 248 256 264 273 274 274 275 278 280 280 292 299 300 304 306 309 309 310 310 311 313 313 310 307 306 305 305 305 300 292 288 288 285 279 274 272 270 268 264 255 247 253 257 259 263
222 210 222 233 232 243 261 269 273 276 276 278 278 281 286 292 294 299 304 306 306 308 308 310 311 311 310 306 304 304 304 303 298 294 289 286 282 278 275 271 266 266 264 258 255 256 260 262 263
229 219 229 240 237 242 254 264 267 270 270 273 277 278 281 284 289 293 299 303 304 306 308 308 310 309 308 304 300 303 303 299 296 292 290 287 280 276 273 271 264 260 259 260 260 258 257 260 264
242 237 240 245 247 248 258 264 263 269 270 274 279 279 283 287 289 292 294 298 301 305 307 306 306 306 305 304 302 300 300 298 293 291 289 285 282 276 270 271 267 257 259 261 263 263 260 259 264
250 246 251 255 257 254 260 264 267 267 271 276 281 282 280 286 286 289 293 297 298 302 303 304 304 301 302 305 304 300 299 298 293 289 285 281 278 275 271 269 267 263 260 263 263 259 259 260 263
243 249 253 258 262 263 261 262 267 272 275 279 282 283 284 280 281 287 291 294 298 299 301 303 303 302 301 300 300 299 298 297 294 288 283 280 279 273 269 267 266 264 260 260 260 260 261 262 264
249 254 257 261 266 267 267 263 265 269 273 273 279 284 283 281 284 287 289 291 294 295 298 301 301 302 301 299 298 297 297 295 294 289 283 280 277 276 272 269 263 264 259 259 259 260 260 261 262
250 255 256 261 268 268 266 265 266 267 274 276 275 279 281 280 280 281 283 287 290 292 295 298 297 298 299 300 299 295 292 292 292 290 285 279 277 277 273 269 265 265 260 259 258 257 258 258 260
251 255 257 260 268 266 267 268 269 270 272 275 279 280 281 282 283 283 283 286 288 289 291 292 294 294 295 297 298 294 290 289 289 287 285 279 276 277 274 268 266 264 263 259 258 258 259 257 258
256 261 261 258 265 266 266 268 272 274 276 277 276 279 279 280 283 282 282 284 285 286 287 288 289 290 292 295 296 293 288 288 288 287 285 279 276 275 274 270 266 266 263 260 258 258 258 257 258
250 254 254 255 262 267 269 269 269 271 272 273 273 276 280 279 279 280 279 280 282 283 285 286 287 288 290 293 294 292 289 288 288 287 285 281 275 274 272 267 266 264 265 265 260 258 259 258 258
250 253 254 257 257 261 267 269 269 271 273 273 271 273 276 275 275 278 280 280 280 280 281 283 285 287 289 291 292 291 289 288 288 285 282 281 275 272 270 266 267 265 265 268 261 258 257 257 257
250 252 253 255 259 263 263 267 269 271 275 271 271 271 272 273 274 277 280 281 278 277 277 279 282 285 287 287 290 291 289 289 287 285 280 277 274 270 268 267 268 268 266 266 262 258 258 256 257
254 251 253 256 260 264 266 270 273 274 275 274 271 269 270 271 274 276 277 278 277 276 276 277 279 282 284 286 289 290 289 288 285 283 280 275 273 270 268 268 267 266 267 264 262 261 260 256 256
255 254 255 257 260 262 262 266 269 273 275 274 275 273 271 269 272 272 275 278 278 277 277 277 277 278 281 285 287 288 287 286 284 284 281 277 274 271 269 266 266 266 264 262 261 260 261 259 258
256 256 257 258 259 263 262 263 268 270 271 274 275 274 271 272 272 273 275 278 278 277 277 278 278 277 280 283 284 285 284 285 285 284 282 277 275 272 269 268 265 265 262 261 259 259 260 260 262
256 256 257 260 260 266 265 261 264 266 268 271 275 277 276 274 275 277 278 278 277 277 278 279 279 277 279 281 281 282 282 282 283 282 281 278 276 272 270 266 264 263 261 261 260 260 260 260 262
254 253 254 257 261 271 273 266 265 270 265 268 270 273 276 274 276 277 279 277 276 276 277 278 278 276 276 279 280 279 280 278 279 279 279 277 277 274 272 269 264 262 261 260 260 262 261 258 261
251 249 253 257 257 261 267 268 269 266 265 271 272 273 273 275 277 280 279 278 276 275 276 277 278 277 276 276 277 277 278 276 275 275 278 278 278 277 273 270 266 262 260 259 261 262 262 260 261
253 253 252 251 256 258 262 267 266 271 274 273 271 270 274 278 281 281 280 279 278 279 280 278 278 278 277 276 274 274 275 274 275 276 277 276 278 278 273 268 266 261 258 258 260 262 263 263 261
253 249 248 251 252 256 261 266 267 273 272 272 276 276 275 279 281 280 279 279 278 277 279 279 278 277 276 276 274 272 271 273 276 276 276 276 276 275 271 268 264 263 261 260 261 262 263 263 261
251 248 249 251 251 252 258 267 271 275 274 275 277 277 278 279 280 278 279 279 278 277 277 278 277 276 276 274 272 270 271 273 274 275 274 273 273 270 267 266 265 264 263 263 263 264 264 263 263
Height
5894 5895 5896 5897 5898 5899 5900 5900 5900 5898 5898 5897 5896 5895 5894 5894 5894 5894 5891 5889 5889 5889 5888 5888 5887 5886 5886 5885 5885 5884 5883 5882 5881 5881 5880 5879 5878 5877 5876 5876 5875 5874 5874 5874 5874 5875 5875 5876 5877
5895 5896 5897 5898 5898 5898 5900 5899 5898 5897 5897 5896 5896 5895 5893 5893 5892 5891 5890 5889 5889 5889 5888 5887 5887 5886 5885 5885 5884 5883 5883 5882 5881 5880 5879 5879 5878 5877 5876 5876 5875 5875 5875 5875 5875 5875 5876 5876 5877
5894 5896 5897 5897 5898 5898 5900 5899 5897 5896 5896 5895 5895 5894 5893 5892 5891 5890 5890 5889 5889 5888 5887 5887 5886 5886 5885 5884 5884 5883 5882 5881 5880 5879 5879 5878 5878 5877 5876 5875 5875 5875 5875 5875 5875 5875 5876 5876 5877
5894 5896 5897 5898 5898 5899 5899 5898 5896 5895 5895 5895 5894 5894 5892 5892 5891 5890 5889 5889 5888 5887 5886 5886 5886 5885 5884 5884 5883 5882 5881 5881 5880 5879 5878 5878 5877 5877 5876 5876 5875 5875 5875 5875 5876 5876 5876 5876 5877
5893 5895 5896 5898 5898 5898 5898 5897 5897 5895 5895 5894 5893 5892 5891 5892 5891 5890 5889 5888 5887 5887 5885 5885 5885 5885 5884 5883 5882 5881 5881 5880 5879 5878 5878 5877 5877 5876 5876 5876 5875 5875 5875 5875 5876 5876 5876 5876 5877
5893 5894 5896 5897 5898 5898 5898 5896 5896 5895 5895 5894 5893 5891 5890 5891 5890 5889 5888 5887 5886 5886 5885 5884 5884 5883 5883 5882 5881 5881 5880 5879 5878 5878 5877 5877 5876 5876 5876 5875 5875 5875 5875 5875 5876 5876 5876 5876 5877
5892 5893 5895 5896 5898 5898 5897 5896 5895 5894 5894 5893 5892 5891 5889 5890 5889 5889 5888 5886 5885 5885 5884 5884 5883 5883 5882 5881 5880 5880 5879 5878 5877 5877 5876 5876 5875 5875 5875 5875 5875 5875 5875 5875 5875 5876 5876 5876 5877
5891 5892 5893 5896 5897 5897 5895 5894 5893 5893 5892 5892 5891 5890 5888 5888 5888 5888 5887 5886 5885 5884 5883 5883 5882 5881 5881 5880 5880 5879 5878 5877 5876 5876 5875 5875 5874 5874 5874 5874 5874 5874 5874 5875 5875 5875 5876 5876 5876
5889 5892 5893 5894 5896 5895 5893 5893 5892 5891 5892 5891 5890 5888 5887 5887 5887 5887 5886 5885 5884 5883 5882 5882 5881 5880 5879 5879 5878 5877 5876 5876 5875 5874 5874 5874 5873 5873 5873 5873 5873 5873 5873 5874 5874 5875 5875 5875 5876
5888 5889 5891 5892 5892 5892 5891 5891 5890 5890 5890 5889 5888 5887 5887 5886 5886 5886 5885 5884 5883 5882 5881 5880 5879 5878 5878 5877 5876 5875 5875 5874 5873 5873 5873 5872 5872 5872 5872 5872 5872 5872 5872 5872 5873 5873 5874 5875 5875
5885 5886 5888 5889 5889 5889 5889 5889 5889 5889 5889 5887 5886 5885 5885 5885 5885 5884 5883 5883 5882 5880 5879 5878 5877 5876 5876 5875 5874 5873 5873 5872 5871 5871 5870 5870 5870 5870 5870 5870 5870 5870 5870 5871 5872 5872 5873 5874 5874
5883 5884 5885 5885 5886 5887 5887 5887 5887 5887 5886 5885 5884 5883 5883 5883 5883 5882 5882 5881 5880 5879 5877 5877 5876 5875 5874 5873 5872 5871 5871 5870 5869 5868 5868 5868 5868 5868 5867 5868 5869 5869 5869 5870 5870 5871 5871 5872 5873
5881 5882 5882 5883 5883 5884 5884 5884 5885 5884 5884 5883 5882 5882 5880 5880 5881 5880 5879 5878 5877 5877 5875 5875 5874 5873 5871 5871 5870 5869 5868 5867 5867 5866 5866 5865 5865 5866 5865 5866 5866 5867 5867 5868 5868 5869 5870 5871 5871
5878 5878 5879 5880 5880 5881 5881 5882 5882 5881 5881 5880 5879 5879 5878 5878 5878 5877 5877 5876 5876 5875 5873 5873 5872 5871 5870 5869 5868 5867 5866 5865 5864 5864 5863 5863 5863 5863 5863 5864 5864 5865 5865 5866 5867 5867 5868 5869 5869
5875 5876 5877 5877 5877 5878 5878 5879 5879 5878 5877 5876 5876 5876 5876 5875 5875 5875 5874 5873 5873 5872 5871 5870 5869 5868 5867 5866 5865 5864 5863 5862 5861 5861 5860 5860 5860 5860 5861 5861 5862 5862 5863 5863 5864 5865 5866 5867 5868
5872 5873 5873 5874 5874 5875 5876 5875 5875 5874 5873 5873 5873 5873 5872 5871 5871 5871 5870 5870 5870 5869 5868 5867 5866 5865 5864 5863 5862 5861 5860 5859 5859 5858 5857 5857 5857 5857 5857 5858 5859 5859 5860 5861 5862 5863 5864 5865 5865
5868 5869 5869 5871 5871 5871 5871 5872 5871 5870 5870 5870 5870 5869 5869 5868 5867 5867 5866 5867 5867 5866 5865 5864 5863 5862 5861 5860 5859 5858 5857 5857 5856 5855 5854 5854 5854 5854 5854 5855 5856 5857 5858 5858 5859 5860 5861 5862 5863
5865 5866 5867 5868 5868 5867 5868 5868 5867 5866 5866 5866 5866 5865 5865 5865 5864 5864 5863 5863 5863 5863 5862 5861 5860 5859 5858 5857 5856 5855 5853 5853 5853 5852 5851 5851 5851 5851 5851 5852 5853 5854 5854 5855 5856 5857 5858 5859 5860
5862 5863 5864 5865 5866 5865 5865 5864 5864 5863 5863 5862 5861 5861 5861 5860 5860 5859 5859 5859 5859 5859 5858 5857 5856 5855 5854 5853 5852 5851 5850 5849 5849 5848 5848 5847 5847 5847 5848 5848 5849 5850 5851 5852 5853 5853 5854 5855 5856
5859 5860 5861 5862 5862 5861 5861 5860 5859 5858 5858 5857 5856 5857 5856 5856 5855 5855 5854 5854 5854 5854 5853 5853 5852 5851 5850 5849 5848 5847 5846 5845 5844 5844 5844 5844 5843 5844 5844 5845 5846 5847 5848 5848 5849 5850 5851 5852 5853
5854 5855 5856 5857 5856 5856 5856 5855 5854 5854 5853 5851 5851 5851 5851 5851 5850 5850 5849 5849 5849 5849 5849 5848 5847 5847 5846 5845 5843 5842 5842 5841 5841 5841 5840 5840 5840 5840 5840 5841 5842 5843 5844 5844 5845 5846 5847 5848 5849
5849 5851 5851 5852 5851 5851 5852 5850 5848 5847 5847 5846 5846 5846 5846 5845 5845 5845 5844 5844 5844 5844 5844 5843 5843 5842 5841 5840 5839 5838 5837 5837 5836 5836 5835 5835 5835 5836 5836 5837 5838 5839 5840 5840 5841 5842 5842 5843 5844
5844 5845 5846 5846 5846 5846 5846 5845 5844 5842 5841 5841 5841 5841 5840 5839 5839 5839 5839 5839 5839 5838 5838 5838 5837 5837 5836 5835 5834 5833 5833 5832 5831 5831 5831 5831 5831 5831 5832 5833 5833 5834 5835 5836 5836 5837 5838 5839 5840
5839 5839 5840 5840 5841 5840 5841 5840 5839 5838 5837 5836 5836 5835 5834 5835 5834 5833 5833 5834 5834 5833 5833 5833 5832 5832 5832 5831 5830 5829 5828 5827 5827 5826 5826 5826 5826 5827 5827 5828 5829 5830 5830 5831 5832 5833 5834 5834 5835
5833 5834 5835 5835 5835 5835 5836 5834 5833 5832 5832 5831 5829 5829 5829 5829 5829 5829 5828 5829 5829 5829 5828 5828 5827 5827 5826 5826 5825 5824 5823 5823 5822 5822 5822 5822 5822 5822 5823 5823 5824 5825 5825 5826 5828 5829 5830 5830 5831
5828 5829 5831 5831 5832 5832 5831 5829 5828 5826 5826 5825 5824 5824 5825 5824 5824 5824 5824 5823 5823 5823 5823 5822 5822 5822 5821 5820 5820 5819 5818 5818 5818 5817 5817 5817 5817 5818 5818 5818 5819 5820 5820 5822 5823 5824 5825 5826 5826
5822 5823 5826 5826 5826 5826 5827 5825 5823 5821 5821 5821 5820 5820 5820 5819 5818 5819 5819 5818 5818 5818 5818 5817 5817 5816 5816 5815 5815 5814 5813 5813 5813 5813 5813 5813 5813 5813 5813 5813 5814 5815 5816 5817 5818 5820 5820 5821 5821
5817 5818 5820 5820 5820 5820 5822 5820 5818 5817 5816 5815 5815 5816 5816 5815 5814 5815 5814 5814 5813 5812 5812 5812 5811 5810 5810 5809 5809 5809 5809 5808 5808 5808 5808 5808 5809 5809 5809 5809 5809 5810 5811 5812 5813 5814 5815 5816 5816
5812 5813 5813 5814 5815 5815 5815 5817 5812 5811 5810 5809 5809 5810 5811 5810 5809 5809 5809 5808 5807 5807 5806 5806 5805 5805 5804 5804 5803 5803 5803 5803 5803 5803 5803 5803 5803 5803 5804 5804 5804 5805 5806 5807 5808 5809 5809 5810 5811
5805 5806 5807 5808 5808 5809 5810 5811 5806 5806 5805 5804 5805 5805 5805 5804 5804 5803 5803 5802 5801 5801 5800 5799 5799 5799 5798 5798 5798 5798 5798 5798 5798 5798 5798 5798 5798 5798 5799 5799 5800 5800 5801 5802 5803 5804 5804 5805 5806